1513839600.57,10744,5.75,73590.5,-12.13,-13.83,-13.93,0,*66
1513839601.85,10745,5.75,73594.5,-12.17,-13.83,-14.01,0,*6F
1513839603.08,10746,5.75,73598.3,-12.13,-13.83,-13.93,0,*64
1513839604.35,10747,5.75,73594.0,-12.17,-13.87,-13.97,0,*61
1513839605.62,10748,5.75,73594.3,-12.13,-13.83,-13.83,0,*6B
1513839606.88,10749,5.75,73584.5,-12.13,-13.83,-13.83,0,*6A
1513839608.15,10750,5.75,73584.5,-12.17,-13.87,-14.01,0,*6F
1513839609.42,10751,5.75,73580.5,-12.17,-13.87,-13.97,0,*66
1513839610.65,10752,5.75,73586.0,-12.13,-13.83,-13.93,0,*61
1513839611.92,10753,5.75,73584.5,-12.17,-13.87,-14.01,0,*6C
1513839613.19,10754,5.75,73584.8,-12.13,-13.83,-13.97,0,*63
1513839614.45,10755,5.75,73590.8,-12.13,-13.87,-13.87,0,*67
1513839615.72,10756,5.75,73582.5,-12.13,-13.83,-13.83,0,*64
1513839616.96,10757,5.75,73582.5,-12.13,-13.83,-13.93,0,*64
1513839618.23,10758,5.75,73588.5,-12.17,-13.83,-13.97,0,*6B
1513839619.49,10759,5.75,73584.8,-12.13,-13.79,-13.83,0,*6E
1513839620.76,10760,5.75,73582.0,-12.17,-13.83,-13.97,0,*60
1513839622.02,10761,5.75,73582.3,-12.13,-13.79,-13.83,0,*65
1513839623.28,10762,5.75,73576.3,-12.17,-13.83,-13.87,0,*63
1513839624.56,10763,5.75,73584.8,-12.17,-13.83,-13.97,0,*63
1513839625.81,10764,5.75,73580.3,-12.13,-13.79,-13.83,0,*60
1513839627.07,10765,5.75,73576.0,-12.13,-13.79,-13.83,0,*61
1513839628.33,10766,5.75,73582.3,-12.13,-13.79,-13.83,0,*62
1513839629.59,10767,5.75,73586.8,-12.13,-13.79,-13.83,0,*63
1513839630.86,10768,5.75,73584.3,-12.17,-13.83,-13.97,0,*68
1513839632.1,10769,5.75,73584.5,-12.13,-13.79,-13.93,0,*6C
1513839633.33,10770,5.75,73586.3,-12.13,-13.79,-13.93,0,*64
1513839634.59,10771,5.75,73584.0,-12.13,-13.83,-13.83,0,*61
1513839635.83,10772,5.75,73590.8,-12.13,-13.83,-13.93,0,*63
1513839637.1,10773,5.75,73590.5,-12.13,-13.83,-13.83,0,*63
1513839638.33,10774,5.75,73586.3,-12.13,-13.83,-13.93,0,*65
1513839639.61,10775,5.75,73578.3,-12.13,-13.83,-13.97,0,*60
1513839640.87,10776,5.75,73576.5,-12.17,-13.87,-13.87,0,*62
1513839642.13,10777,5.75,73578.3,-12.17,-13.87,-13.97,0,*62
1513839643.37,10778,5.75,73584.3,-12.13,-13.83,-13.93,0,*69
1513839644.64,10779,5.75,73586.5,-12.13,-13.83,-13.83,0,*69
1513839645.9,10780,5.75,73588.0,-12.13,-13.79,-13.83,0,*6A
1513839647.16,10781,5.75,73590.5,-12.13,-13.79,-13.83,0,*6B
1513839648.43,10782,5.75,73584.5,-12.17,-13.83,-13.97,0,*6C
1513839649.69,10783,5.75,73582.5,-12.13,-13.83,-13.83,0,*6C
1513839650.96,10784,5.75,73586.0,-12.13,-13.83,-13.83,0,*6B
1513839652.23,10785,5.75,73586.0,-12.13,-13.83,-13.83,0,*6A
1513839653.46,10786,5.75,73590.5,-12.13,-13.83,-13.93,0,*68
1513839654.7,10787,5.75,73586.0,-12.13,-13.83,-13.93,0,*69
1513839655.97,10788,5.75,73588.3,-12.13,-13.83,-13.83,0,*67
1513839657.2,10789,5.75,73588.0,-12.13,-13.93,-13.83,0,*67
1513839658.47,10790,5.75,73584.3,-12.13,-13.83,-13.97,0,*6B
1513839659.71,10791,5.75,73584.3,-12.13,-13.93,-13.83,0,*6E
1513839660.97,10792,5.75,73582.5,-12.13,-13.83,-13.83,0,*6C
1513839662.2,10793,5.75,73580.5,-12.13,-13.79,-13.93,0,*69
1513839663.44,10794,5.75,73584.3,-12.13,-13.83,-13.93,0,*6B
1513839664.68,10795,5.75,73586.3,-12.13,-13.83,-13.93,0,*6A
1513839665.95,10796,5.75,73586.8,-12.17,-13.87,-13.97,0,*6D
1513839667.2,10797,5.75,73584.0,-12.17,-13.87,-13.87,0,*6D
1513839668.47,10798,5.75,73588.5,-12.17,-13.87,-13.97,0,*63
1513839669.68,10799,5.75,73586.0,-12.13,-13.93,-13.93,0,*67
1513839670.95,10800,5.75,73586.8,-12.17,-13.83,-13.97,0,*69
1513839672.15,10801,5.75,73590.3,-12.13,-13.93,-13.93,0,*69
1513839673.39,10802,5.75,73584.3,-12.13,-13.93,-13.97,0,*6E
1513839674.63,10803,5.75,73584.5,-12.13,-13.93,-13.97,0,*6F
1513839675.87,10804,5.75,73584.3,-12.13,-13.93,-14.01,0,*60
1513839677.15,10805,5.75,73584.5,-12.13,-13.97,-14.01,0,*65
1513839678.41,10806,5.75,73584.5,-12.17,-13.87,-14.01,0,*63
1513839679.68,10807,5.75,73586.3,-12.13,-13.83,-13.97,0,*6A
1513839680.92,10808,5.75,73590.5,-12.13,-13.93,-13.97,0,*64
1513839682.16,10809,5.75,73590.5,-12.13,-13.93,-13.97,0,*65
1513839683.44,10810,5.75,73588.3,-12.13,-13.97,-14.01,0,*61
1513839684.68,10811,5.75,73590.0,-12.13,-13.93,-13.97,0,*6C
1513839685.95,10812,5.75,73590.5,-12.17,-13.97,-14.05,0,*63
1513839687.22,10813,5.75,73584.8,-12.17,-13.83,-14.01,0,*63
1513839688.46,10814,5.75,73586.5,-12.13,-13.93,-13.97,0,*69
1513839689.73,10815,5.75,73588.8,-12.13,-13.83,-13.97,0,*69
1513839690.97,10816,5.75,73584.3,-12.13,-13.93,-14.01,0,*63
1513839692.24,10817,5.75,73584.5,-12.13,-13.83,-13.83,0,*6E
1513839693.47,10818,5.75,73586.0,-12.13,-13.83,-13.93,0,*60
1513839694.71,10819,5.75,73584.0,-12.13,-13.83,-13.93,0,*61
1513839695.98,10820,5.75,73580.3,-12.17,-13.87,-14.01,0,*67
1513839697.25,10821,5.75,73586.0,-12.13,-13.83,-13.97,0,*6E
1513839698.49,10822,5.75,73584.0,-12.13,-13.83,-13.93,0,*69
1513839699.73,10823,5.75,73584.3,-12.13,-13.93,-14.01,0,*65
1513839700.97,10824,5.75,73582.8,-12.13,-13.93,-13.97,0,*6A
1513839702.24,10825,5.75,73584.5,-12.13,-13.83,-13.97,0,*6A
1513839703.48,10826,5.75,73588.3,-12.17,-13.93,-13.97,0,*6C
1513839704.75,10827,5.75,73590.3,-12.13,-13.83,-14.01,0,*60
1513839706.02,10828,5.75,73590.0,-12.17,-13.97,-14.05,0,*6A
1513839707.26,10829,5.75,73588.0,-12.13,-13.93,-14.01,0,*6F
1513839708.53,10830,5.75,73584.8,-12.13,-13.97,-13.97,0,*6B
1513839709.78,10831,5.75,73584.0,-12.13,-14.01,-14.11,0,*6B
1513839711.07,10832,5.75,73588.0,-12.11,-13.97,-14.01,0,*63
1513839712.35,10833,5.75,73586.3,-12.13,-14.01,-14.01,0,*68
1513839713.59,10834,5.75,73588.3,-12.13,-13.93,-13.97,0,*6B
1513839714.83,10835,5.75,73588.8,-12.13,-13.93,-14.01,0,*62
1513839716.1,10836,5.75,73588.0,-12.13,-13.97,-14.01,0,*65
1513839717.34,10837,5.75,73592.0,-12.13,-13.93,-14.01,0,*60
1513839718.58,10838,5.75,73588.0,-12.13,-13.93,-13.97,0,*67
1513839719.85,10839,5.75,73590.0,-12.17,-13.97,-14.05,0,*6A
1513839721.09,10840,5.75,73588.5,-12.13,-13.93,-13.97,0,*68
1513839722.36,10841,5.75,73594.8,-12.13,-13.83,-13.97,0,*68
1513839723.6,10842,5.75,73588.0,-12.13,-13.93,-14.01,0,*62
1513839724.84,10843,5.75,73590.8,-12.13,-13.93,-14.01,0,*63
1513839726.11,10844,5.75,73588.3,-12.17,-13.97,-14.01,0,*64
1513839727.35,10845,5.75,73582.3,-12.13,-13.83,-13.93,0,*68
1513839728.59,10846,5.75,73586.8,-12.13,-13.83,-13.93,0,*6B
1513839729.86,10847,5.75,73584.0,-12.13,-13.83,-13.97,0,*6E
1513839731.06,10848,5.75,73586.3,-12.13,-13.93,-13.93,0,*64
1513839732.3,10849,5.75,73590.3,-12.13,-13.93,-14.01,0,*69
1513839733.58,10850,5.75,73590.8,-12.13,-13.97,-14.01,0,*65
1513839734.85,10851,5.75,73586.5,-12.13,-13.97,-14.05,0,*60
1513839736.12,10852,5.75,73592.5,-12.17,-14.05,-14.05,0,*6B
1513839737.39,10853,5.75,73592.8,-12.13,-13.97,-14.01,0,*66
1513839738.66,10854,5.75,73590.3,-12.13,-14.01,-14.01,0,*69
1513839739.9,10855,5.75,73588.0,-12.13,-14.01,-14.11,0,*69
1513839741.14,10856,5.75,73590.3,-12.13,-14.01,-14.11,0,*6A
1513839742.38,10857,5.75,73588.5,-12.13,-13.97,-14.11,0,*63
1513839743.63,10858,5.75,73588.0,-12.17,-14.01,-14.15,0,*64
1513839744.9,10859,5.75,73590.0,-12.17,-14.01,-14.05,0,*64
1513839746.17,10860,5.75,73584.0,-12.17,-14.01,-14.05,0,*6E
1513839747.44,10861,5.75,73588.3,-12.13,-14.01,-14.01,0,*6F
1513839748.71,10862,5.75,73588.3,-12.17,-14.01,-14.05,0,*6C
1513839749.98,10863,5.75,73588.8,-12.17,-14.01,-14.05,0,*6D
1513839751.26,10864,5.75,73588.0,-12.13,-14.01,-14.01,0,*6A
1513839752.53,10865,5.75,73588.8,-12.17,-14.01,-14.05,0,*6B
1513839753.77,10866,5.75,73590.8,-12.17,-14.05,-14.15,0,*6D
1513839755.02,10867,5.75,73586.8,-12.17,-14.01,-14.15,0,*68
1513839756.26,10868,5.75,73590.3,-12.17,-14.05,-14.19,0,*6F
1513839757.51,10869,5.75,73588.0,-12.17,-14.01,-14.15,0,*66
1513839758.75,10870,5.75,73588.5,-12.17,-14.01,-14.15,0,*6E
1513839760.0,10871,5.75,73588.5,-12.17,-14.01,-14.15,0,*6F
1513839761.27,10872,5.75,73592.8,-12.17,-14.01,-14.05,0,*6D
1513839762.54,10873,5.75,73588.8,-12.17,-14.01,-14.05,0,*6C
1513839763.81,10874,5.75,73594.3,-12.17,-14.01,-14.01,0,*6F
1513839765.09,10875,5.75,73590.8,-12.17,-13.97,-14.01,0,*66
1513839766.36,10876,5.75,73592.5,-12.17,-13.97,-14.01,0,*65
1513839767.63,10877,5.75,73592.5,-12.17,-14.01,-14.05,0,*68
1513839768.9,10878,5.75,73598.8,-12.17,-13.97,-14.05,0,*6F
1513839770.17,10879,5.75,73592.8,-12.17,-13.97,-14.05,0,*6E
1513839771.44,10880,5.75,73592.0,-12.17,-14.01,-14.01,0,*64
1513839772.71,10881,5.75,73592.3,-12.17,-13.97,-14.01,0,*6D
1513839773.99,10882,5.75,73592.8,-12.17,-13.97,-13.97,0,*66
1513839775.26,10883,5.75,73592.0,-12.17,-13.97,-14.01,0,*6F
1513839776.53,10884,5.75,73592.3,-12.17,-13.97,-14.01,0,*68
1513839777.77,10885,5.75,73588.3,-12.13,-13.97,-14.11,0,*6C
1513839779.04,10886,5.75,73590.0,-12.17,-14.05,-14.05,0,*62
1513839780.32,10887,5.75,73590.5,-12.13,-13.83,-14.01,0,*6A
1513839781.59,10888,5.75,73590.8,-12.17,-13.97,-14.05,0,*60
1513839782.86,10889,5.75,73588.8,-12.17,-14.01,-14.01,0,*6D
1513839784.13,10890,5.81,73592.8,-12.17,-13.97,-14.05,0,*69
1513839785.39,10891,5.75,73592.8,-12.19,-14.05,-14.11,0,*6F
1513839786.63,10892,5.75,73592.8,-12.19,-14.11,-14.11,0,*69
1513839787.9,10893,5.75,73594.0,-12.17,-14.01,-14.05,0,*62
1513839789.18,10894,5.75,73592.8,-12.13,-14.01,-14.01,0,*65
1513839790.45,10895,5.75,73590.5,-12.19,-14.05,-14.19,0,*63
1513839791.74,10896,5.75,73592.3,-12.19,-14.01,-14.05,0,*69
1513839793.04,10897,5.81,73594.8,-12.19,-14.01,-14.05,0,*68
1513839794.34,10898,5.75,73592.0,-12.19,-14.05,-14.05,0,*63
1513839795.58,10899,5.75,73592.3,-12.19,-14.11,-14.11,0,*62
1513839796.85,10900,5.75,73592.3,-12.19,-14.01,-14.19,0,*6A
1513839798.14,10901,5.75,73592.0,-12.19,-14.01,-14.05,0,*66
1513839799.4,10902,5.75,73594.0,-12.19,-13.93,-14.05,0,*69
1513839800.67,10903,5.75,73592.5,-12.19,-13.93,-14.05,0,*68
1513839801.93,10904,5.75,73596.5,-12.19,-14.01,-14.11,0,*66
1513839803.2,10905,5.75,73598.5,-12.19,-13.93,-14.05,0,*6E
1513839804.46,10906,5.75,73590.5,-12.19,-13.93,-14.01,0,*69
1513839805.76,10907,5.75,73596.0,-12.19,-14.01,-14.01,0,*64
1513839807.02,10908,5.75,73596.8,-12.17,-13.87,-14.05,0,*68
1513839808.3,10909,5.75,73596.3,-12.17,-14.01,-13.97,0,*6C
1513839809.57,10910,5.75,73594.5,-12.17,-13.97,-13.97,0,*6C
1513839810.84,10911,5.75,73596.3,-12.17,-13.97,-13.87,0,*6C
1513839812.1,10912,5.75,73596.0,-12.19,-14.01,-14.11,0,*61
1513839813.33,10913,5.75,73600.3,-12.19,-13.93,-13.93,0,*61
1513839814.63,10914,5.75,73596.3,-12.19,-14.01,-14.01,0,*66
1513839815.87,10915,5.75,73598.8,-12.21,-14.01,-13.93,0,*60
1513839817.13,10916,5.75,73592.0,-12.17,-13.87,-13.87,0,*6A
1513839818.4,10917,5.75,73592.5,-12.17,-13.83,-13.97,0,*6E
1513839819.67,10918,5.75,73592.3,-12.19,-13.93,-14.01,0,*66
1513839820.97,10919,5.75,73594.8,-12.19,-14.01,-14.01,0,*6B
1513839822.21,10920,5.75,73598.8,-12.21,-13.93,-14.01,0,*66
1513839823.51,10921,5.75,73598.3,-12.19,-14.01,-14.01,0,*60
1513839824.77,10922,5.75,73596.5,-12.19,-13.93,-14.01,0,*6F
1513839826.07,10923,5.75,73598.8,-12.19,-14.05,-14.01,0,*66
1513839827.37,10924,5.75,73600.5,-12.19,-14.01,-14.01,0,*65
1513839828.67,10925,5.75,73598.0,-12.19,-14.01,-14.01,0,*64
1513839829.94,10926,5.75,73596.0,-12.21,-14.01,-14.05,0,*68
1513839831.2,10927,5.75,73600.8,-12.19,-13.93,-14.05,0,*6E
1513839832.48,10928,5.75,73596.3,-12.17,-13.97,-14.01,0,*6F
1513839833.74,10929,5.75,73596.8,-12.19,-14.01,-14.11,0,*69
1513839835.04,10930,5.75,73598.3,-12.19,-14.05,-14.05,0,*60
1513839836.31,10931,5.75,73598.3,-12.19,-14.11,-14.05,0,*64
1513839837.57,10932,5.75,73596.8,-12.19,-14.05,-14.11,0,*67
1513839838.84,10933,5.75,73598.5,-12.21,-14.01,-14.05,0,*6C
1513839840.14,10934,5.75,73594.3,-12.19,-14.01,-14.01,0,*64
1513839841.44,10935,5.75,73596.0,-12.19,-14.01,-14.05,0,*61
1513839842.71,10936,5.75,73596.8,-12.19,-14.01,-13.93,0,*6A
1513839843.97,10937,5.75,73596.8,-12.19,-13.93,-14.01,0,*6B
1513839845.24,10938,5.75,73594.5,-12.19,-13.93,-14.01,0,*64
1513839846.53,10939,5.75,73598.8,-12.19,-14.01,-14.05,0,*6D
1513839847.83,10940,5.75,73598.5,-12.19,-14.01,-14.05,0,*63
1513839849.09,10941,5.75,73596.3,-12.19,-13.93,-14.05,0,*6E
1513839850.36,10942,5.75,73596.5,-12.19,-13.93,-14.01,0,*69
1513839851.65,10943,5.75,73596.8,-12.19,-14.05,-14.05,0,*64
1513839852.89,10944,5.75,73596.8,-12.21,-13.93,-14.05,0,*60
1513839854.18,10945,5.75,73596.0,-12.19,-14.01,-14.05,0,*66
1513839855.48,10946,5.75,73600.5,-12.19,-14.01,-14.01,0,*61
1513839856.78,10947,5.75,73598.0,-12.19,-14.01,-14.01,0,*60
1513839858.06,10948,5.75,73596.5,-12.21,-14.01,-14.01,0,*64
1513839859.32,10949,5.75,73600.0,-12.19,-14.01,-14.11,0,*6F
1513839860.56,10950,5.75,73596.3,-12.19,-14.11,-14.11,0,*66
1513839861.78,10951,5.75,73600.5,-12.21,-14.11,-14.11,0,*6C
1513839862.99,10952,5.75,73598.8,-12.21,-14.11,-14.11,0,*6F
1513839864.23,10953,5.75,73600.5,-12.19,-14.11,-14.11,0,*65
1513839865.5,10954,5.75,73600.3,-12.21,-14.05,-14.05,0,*69
1513839866.79,10955,5.75,73600.5,-12.19,-14.05,-14.05,0,*63
1513839868.06,10956,5.81,73600.5,-12.21,-14.01,-14.05,0,*6F
1513839869.33,10957,5.75,73598.5,-12.19,-13.93,-14.01,0,*6D
1513839870.53,10958,5.75,73602.5,-12.21,-13.93,-13.93,0,*65
1513839871.81,10959,5.75,73598.0,-12.21,-14.01,-14.01,0,*64
1513839873.05,10960,5.75,73598.8,-12.21,-14.01,-13.93,0,*62
1513839874.28,10961,5.75,73600.0,-12.21,-13.93,-14.01,0,*63
1513839875.56,10962,5.75,73600.3,-12.21,-14.01,-14.01,0,*6C
1513839876.86,10963,5.75,73600.8,-12.19,-14.01,-14.01,0,*66
1513839878.13,10964,5.75,73600.5,-12.21,-14.01,-14.01,0,*6A
1513839879.4,10965,5.75,73598.0,-12.21,-14.01,-14.01,0,*6B
1513839880.7,10966,5.75,73600.5,-12.19,-14.01,-14.01,0,*63
1513839881.94,10967,5.75,73600.8,-12.21,-13.93,-14.01,0,*65
1513839883.21,10968,5.75,73598.8,-12.21,-14.01,-14.01,0,*66
1513839884.45,10969,5.75,73602.0,-12.21,-13.93,-14.01,0,*6B
1513839885.69,10970,5.75,73600.8,-12.21,-13.93,-14.01,0,*63
1513839886.89,10971,5.75,73602.0,-12.21,-13.93,-13.93,0,*6E
1513839888.1,10972,5.75,73598.5,-12.21,-13.93,-13.93,0,*6D
1513839889.36,10973,5.75,73600.0,-12.19,-13.93,-14.01,0,*6B
1513839890.57,10974,5.75,73600.8,-12.21,-13.93,-13.93,0,*6B
1513839891.77,10975,5.81,73602.0,-12.21,-13.93,-13.93,0,*6A
1513839893.01,10976,5.75,73600.8,-12.21,-13.93,-14.01,0,*65
1513839894.29,10977,5.75,73602.8,-12.21,-14.01,-14.01,0,*68
1513839895.52,10978,5.75,73600.5,-12.21,-13.93,-14.01,0,*6B
1513839896.76,10979,5.75,73602.3,-12.21,-14.01,-13.93,0,*6A
1513839898.0,10980,5.81,73604.5,-12.21,-13.93,-14.01,0,*6C
1513839899.27,10981,5.75,73600.0,-12.21,-14.01,-14.01,0,*61
1513839900.51,10982,5.75,73598.0,-12.21,-13.93,-14.01,0,*6E
1513839901.75,10983,5.75,73600.3,-12.21,-14.01,-13.93,0,*6F
1513839903.02,10984,5.75,73600.8,-12.21,-14.01,-14.01,0,*64
1513839904.29,10985,5.75,73598.0,-12.21,-14.01,-14.05,0,*61
1513839905.56,10986,5.75,73598.8,-12.23,-14.05,-14.11,0,*61
1513839906.82,10987,5.75,73600.3,-12.23,-14.05,-14.11,0,*60
1513839908.09,10988,5.75,73598.8,-12.21,-14.01,-14.05,0,*6C
1513839909.39,10989,5.75,73600.3,-12.23,-14.05,-14.05,0,*6B
1513839910.68,10990,5.75,73600.3,-12.23,-13.97,-13.97,0,*63
1513839911.92,10991,5.75,73600.5,-12.21,-13.93,-14.01,0,*6C
1513839913.22,10992,5.75,73598.0,-12.23,-14.05,-14.05,0,*61
1513839914.51,10993,5.75,73598.0,-12.23,-13.97,-14.05,0,*6C
1513839915.81,10994,5.75,73600.8,-12.23,-14.05,-13.97,0,*6B
1513839917.1,10995,5.75,73598.8,-12.23,-14.05,-14.05,0,*66
1513839918.37,10996,5.75,73598.5,-12.23,-14.11,-14.05,0,*60
1513839919.66,10997,5.75,73600.3,-12.23,-13.97,-14.05,0,*68
1513839920.96,10998,5.75,73600.0,-12.23,-14.05,-14.05,0,*6B
1513839922.25,10999,5.75,73602.3,-12.23,-13.97,-14.05,0,*66
1513839923.52,11000,5.75,73602.5,-12.23,-14.05,-14.11,0,*67
1513839924.81,11001,5.75,73600.5,-12.23,-13.97,-14.05,0,*6F
1513839926.1,11002,5.75,73600.8,-12.23,-14.05,-14.05,0,*60
1513839927.4,11003,5.75,73600.8,-12.23,-14.05,-14.05,0,*61
1513839928.64,11004,5.75,73602.8,-12.23,-14.11,-14.11,0,*66
1513839929.87,11005,5.75,73600.0,-12.23,-14.11,-14.11,0,*67
1513839931.11,11006,5.75,73602.0,-12.23,-14.11,-14.11,0,*64
1513839932.35,11007,5.75,73602.8,-12.23,-14.15,-14.11,0,*61
1513839933.61,11008,5.75,73602.0,-12.23,-14.05,-14.11,0,*6F
1513839934.86,11009,5.75,73602.3,-12.23,-14.11,-14.15,0,*6F
1513839936.1,11010,5.75,73596.0,-12.23,-14.11,-14.15,0,*67
1513839937.35,11011,5.75,73600.3,-12.23,-14.11,-14.15,0,*66
1513839938.61,11012,5.75,73598.3,-12.23,-14.11,-14.05,0,*64
1513839939.86,11013,5.75,73596.8,-12.23,-14.15,-14.11,0,*64
1513839941.12,11014,5.75,73598.5,-12.23,-14.11,-14.05,0,*62
1513839942.42,11015,5.75,73600.3,-12.23,-14.05,-14.05,0,*66
1513839943.68,11016,5.75,73600.3,-12.23,-14.11,-14.05,0,*60
1513839944.95,11017,5.75,73602.8,-12.23,-13.97,-14.11,0,*6D
1513839946.21,11018,5.75,73602.0,-12.23,-13.97,-14.11,0,*62
1513839947.45,11019,5.75,73600.5,-12.23,-14.11,-14.11,0,*6A
1513839948.72,11020,5.75,73602.5,-12.23,-14.11,-14.05,0,*65
1513839949.95,11021,5.75,73602.3,-12.23,-14.11,-14.11,0,*61
1513839951.19,11022,5.81,73604.3,-12.23,-14.11,-14.11,0,*62
1513839952.46,11023,5.75,73602.5,-12.23,-14.11,-14.05,0,*66
1513839953.7,11024,5.75,73602.0,-12.27,-14.15,-14.11,0,*64
1513839954.94,11025,5.75,73602.8,-12.27,-14.11,-14.11,0,*61
1513839956.18,11026,5.75,73602.8,-12.27,-14.11,-14.11,0,*62
1513839957.47,11027,5.75,73602.0,-12.23,-14.05,-14.05,0,*67
1513839958.77,11028,5.75,73600.8,-12.23,-14.05,-14.05,0,*68
1513839960.06,11029,5.75,73604.3,-12.23,-14.05,-14.05,0,*69
1513839961.31,11030,5.75,73600.8,-12.27,-14.11,-14.15,0,*61
1513839962.55,11031,5.75,73606.0,-12.27,-14.11,-14.15,0,*60
1513839963.8,11032,5.75,73600.8,-12.29,-14.11,-14.01,0,*68
1513839965.05,11033,5.75,73602.3,-12.29,-14.01,-14.15,0,*6D
1513839966.29,11034,5.75,73602.8,-12.27,-14.11,-14.11,0,*61
1513839967.56,11035,5.75,73600.3,-12.27,-14.01,-14.11,0,*61
1513839968.8,11036,5.75,73602.5,-12.27,-14.15,-14.11,0,*67
1513839970.05,11037,5.75,73602.8,-12.27,-14.11,-14.15,0,*66
1513839971.3,11038,5.75,73598.8,-12.27,-14.11,-14.15,0,*69
1513839972.51,11039,5.75,73600.8,-12.29,-14.19,-14.11,0,*6A
1513839973.74,11040,5.75,73602.3,-12.29,-14.15,-14.19,0,*60
1513839974.98,11041,5.75,73600.5,-12.27,-14.19,-14.15,0,*6F
1513839976.21,11042,5.75,73600.8,-12.29,-14.15,-14.15,0,*6E
1513839977.46,11043,5.75,73602.8,-12.27,-14.15,-14.15,0,*61
1513839978.69,11044,5.75,73600.5,-12.29,-14.15,-14.15,0,*68
1513839979.92,11045,5.75,73600.8,-12.29,-14.15,-14.15,0,*69
1513839981.14,11046,5.75,73602.0,-12.29,-14.19,-14.15,0,*66
1513839982.37,11047,5.75,73600.3,-12.29,-14.19,-14.15,0,*67
1513839983.61,11048,5.75,73600.5,-12.27,-14.19,-14.19,0,*6A
1513839984.83,11049,5.75,73602.3,-12.29,-14.19,-14.19,0,*65
1513839986.05,11050,5.75,73602.8,-12.29,-14.19,-14.19,0,*6D
1513839987.28,11051,5.75,73600.5,-12.29,-14.19,-14.15,0,*60
1513839988.51,11052,5.75,73600.5,-12.29,-14.15,-14.15,0,*6F
1513839989.75,11053,5.75,73600.0,-12.31,-14.19,-14.19,0,*67
1513839991.0,11054,5.75,73600.5,-12.31,-14.19,-14.23,0,*69
1513839992.25,11055,5.75,73604.8,-12.31,-14.19,-14.19,0,*61
1513839993.5,11056,5.75,73600.3,-12.31,-14.23,-14.19,0,*6B
1513839994.75,11057,5.75,73598.5,-12.31,-14.23,-14.19,0,*6A
1513839995.97,11058,5.75,73602.5,-12.33,-14.23,-14.23,0,*6E
1513839997.19,11059,5.75,73600.0,-12.33,-14.23,-14.23,0,*6F
1513839998.44,11060,5.75,73604.0,-12.31,-14.23,-14.19,0,*6E
1513839999.66,11061,5.75,73602.3,-12.33,-14.19,-14.23,0,*6D
1513840000.91,11062,5.81,73604.0,-12.31,-14.19,-14.23,0,*6C
1513840002.13,11063,5.75,73606.3,-12.33,-14.19,-14.19,0,*66
1513840003.34,11064,5.75,73600.8,-12.33,-14.19,-14.19,0,*61
1513840004.57,11065,5.75,73600.0,-12.33,-14.15,-14.15,0,*60
1513840005.79,11066,5.75,73604.5,-12.33,-14.19,-14.19,0,*63
1513840007.01,11067,5.75,73606.0,-12.33,-14.19,-14.23,0,*6B
1513840008.26,11068,5.75,73600.8,-12.31,-14.19,-14.15,0,*63
1513840009.54,11069,5.75,73604.8,-12.31,-14.15,-14.05,0,*6F
1513840010.79,11070,5.75,73600.3,-12.31,-14.19,-14.15,0,*6A
1513840012.04,11071,5.75,73602.8,-12.31,-14.15,-14.23,0,*62
1513840013.26,11072,5.75,73604.5,-12.33,-14.23,-14.19,0,*6F
1513840014.48,11073,5.75,73602.5,-12.33,-14.23,-14.15,0,*62
1513840015.7,11074,5.75,73602.0,-12.33,-14.19,-14.23,0,*69
1513840016.92,11075,5.75,73606.8,-12.33,-14.19,-14.15,0,*6D
1513840018.14,11076,5.75,73606.8,-12.33,-14.19,-14.19,0,*62
1513840019.36,11077,5.75,73606.5,-12.33,-14.19,-14.23,0,*6A
1513840020.58,11078,5.75,73600.5,-12.33,-14.19,-14.19,0,*6C
1513840021.82,11079,5.75,73604.3,-12.35,-14.19,-14.19,0,*6B
1513840023.07,11080,5.75,73606.3,-12.35,-14.23,-14.19,0,*64
1513840024.32,11081,5.75,73602.5,-12.35,-14.23,-14.23,0,*6C
1513840025.56,11082,5.75,73600.5,-12.35,-14.19,-14.19,0,*6F
1513840026.81,11083,5.75,73600.3,-12.35,-14.19,-14.15,0,*62
1513840028.05,11084,5.75,73600.5,-12.35,-14.23,-14.19,0,*60
1513840029.3,11085,5.75,73602.0,-12.35,-14.19,-14.15,0,*64
1513840030.52,11086,5.75,73600.5,-12.39,-14.19,-14.19,0,*67
1513840031.77,11087,5.75,73600.8,-12.35,-14.15,-14.15,0,*6A
1513840033.02,11088,5.75,73600.8,-12.35,-14.19,-14.15,0,*69
1513840034.27,11089,5.75,73602.8,-12.35,-14.15,-14.15,0,*64
1513840035.52,11090,5.75,73598.8,-12.35,-14.19,-14.19,0,*6C
1513840036.73,11091,5.75,73596.3,-12.39,-14.29,-14.19,0,*62
1513840037.98,11092,5.75,73600.8,-12.35,-14.15,-14.23,0,*6B
1513840039.23,11093,5.75,73602.3,-12.35,-14.15,-14.19,0,*63
1513840040.45,11094,5.75,73604.3,-12.39,-14.23,-14.23,0,*64
1513840041.7,11095,5.75,73606.0,-12.35,-14.23,-14.19,0,*60
1513840042.92,11096,5.75,73606.0,-12.39,-14.23,-14.29,0,*6C
1513840044.14,11097,5.75,73602.8,-12.39,-14.23,-14.23,0,*67
1513840045.36,11098,5.75,73598.3,-12.39,-14.23,-14.23,0,*68
1513840046.59,11099,5.75,73606.0,-12.39,-14.19,-14.23,0,*60
1513840047.83,11100,5.75,73600.8,-12.41,-14.23,-14.15,0,*62
1513840049.05,11101,5.75,73600.8,-12.39,-14.19,-14.19,0,*69
1513840050.27,11102,5.75,73604.5,-12.39,-14.23,-14.19,0,*63
1513840051.49,11103,5.75,73606.5,-12.39,-14.23,-14.19,0,*62
1513840052.7,11104,5.75,73602.8,-12.39,-14.23,-14.11,0,*6D
1513840053.92,11105,5.75,73602.5,-12.39,-14.23,-14.19,0,*64
1513840055.14,11106,5.75,73596.0,-12.39,-14.23,-14.19,0,*67
1513840056.36,11107,5.75,73592.3,-12.39,-14.19,-14.11,0,*67
1513840057.58,11108,5.75,73592.8,-12.39,-14.19,-14.11,0,*68
1513840058.81,11109,5.75,73590.3,-12.41,-14.29,-14.15,0,*61
1513840060.06,11110,5.75,73590.8,-12.41,-14.23,-14.23,0,*66
1513840061.3,11111,5.75,73596.5,-12.41,-14.23,-14.15,0,*62
1513840062.51,11112,5.75,73598.8,-12.43,-14.29,-14.29,0,*66
1513840063.75,11113,5.75,73598.3,-12.41,-14.29,-14.33,0,*6E
1513840064.99,11114,5.75,73596.0,-12.41,-14.33,-14.29,0,*69
1513840066.22,11115,5.75,73598.5,-12.41,-14.33,-14.33,0,*63
1513840067.45,11116,5.81,73604.0,-12.41,-14.29,-14.33,0,*6B
1513840068.67,11117,5.75,73600.3,-12.43,-14.33,-14.29,0,*68
1513840069.9,11118,5.75,73602.8,-12.41,-14.29,-14.33,0,*65
1513840071.14,11119,5.75,73600.8,-12.41,-14.29,-14.33,0,*64
1513840072.37,11120,5.75,73600.0,-12.41,-14.33,-14.33,0,*65
1513840073.59,11121,5.75,73598.5,-12.43,-14.33,-14.29,0,*6D
1513840074.82,11122,5.75,73602.8,-12.41,-14.29,-14.23,0,*6D
1513840076.06,11123,5.75,73600.0,-12.41,-14.29,-14.33,0,*6D
1513840077.27,11124,5.75,73600.5,-12.43,-14.29,-14.29,0,*63
1513840078.49,11125,5.75,73598.3,-12.43,-14.33,-14.29,0,*69
1513840079.7,11126,5.75,73600.8,-12.43,-14.29,-14.33,0,*6A
1513840080.94,11127,5.75,73598.8,-12.41,-14.33,-14.29,0,*69
1513840082.15,11128,5.75,73600.8,-12.43,-14.29,-14.33,0,*64
1513840083.37,11129,5.75,73600.5,-12.43,-14.29,-14.23,0,*64
1513840084.58,11130,5.75,73600.3,-12.43,-14.29,-14.33,0,*6D
1513840085.8,11131,5.75,73598.5,-12.43,-14.23,-14.23,0,*67
1513840087.02,11132,5.75,73602.3,-12.43,-14.29,-14.23,0,*6E
1513840088.24,11133,5.75,73602.0,-12.43,-14.23,-14.23,0,*65
1513840089.46,11134,5.75,73602.8,-12.43,-14.33,-14.23,0,*63
1513840090.68,11135,5.75,73600.3,-12.43,-14.23,-14.23,0,*63
1513840091.9,11136,5.75,73604.8,-12.43,-14.29,-14.23,0,*6A
1513840093.14,11137,5.81,73604.8,-12.45,-14.29,-14.23,0,*6D
1513840094.39,11138,5.75,73604.5,-12.45,-14.23,-14.23,0,*68
1513840095.64,11139,5.75,73606.0,-12.45,-14.23,-14.23,0,*69
1513840096.88,11140,5.75,73604.8,-12.45,-14.29,-14.23,0,*6D
1513840098.13,11141,5.75,73600.0,-12.45,-14.29,-14.23,0,*6C
1513840099.37,11142,5.75,73600.0,-12.45,-14.33,-14.29,0,*6E
1513840100.61,11143,5.75,73596.8,-12.45,-14.33,-14.19,0,*6C